User: anonymous   Login
Location: Unspecified
(0.0000°N, 0.0000°E)
Time: 06:21:52
(UTC+00:00)
Language:

EGYPTSAT 1 - Orbit

View from above orbital plane
View from above orbital plane
View from above satellite
View from above satellite

Ground track
Ground track

The orbit data is extracted from the following two-line orbital elements,

1 31117U 07012A   18324.91304997  .00000152  00000-0  31005-4 0  9994
2 31117  97.7020 313.6201 0005907  19.6347 340.5098 14.72861544622749
Epoch (UTC): 20 November 2018 21:54:47
Eccentricity: 0.0005907
inclination: 97.7020°
perigee height: 648 km
apogee height: 656 km
right ascension of ascending node: 313.6201°
argument of perigee: 19.6347°
revolutions per day: 14.72861544
mean anomaly at epoch: 340.5098°
orbit number at epoch: 62274

The dashed part of the orbit path shows where the satellite is in the earth's shadow,  

DLR